"2009-06-21 00:00:00",993904,7.395,307.1,4.833,0.993,16.64,106.3556,15.54,16.65,53.34,0,110.5,13.29,16.35,269.1
"2009-06-21 00:00:30",993905,6.91,305,1.452,0.304,16.28,106.3396,15.5,16.63,53.54,0,110.6,13.28,16.31,267.0
"2009-06-21 00:01:00",993906,8.08,315.4,7.485,1.397,19.49,106.3221,15.46,16.84,53.84,0,110.5,13.29,16.26,277.4
"2009-06-21 00:01:30",993907,8.51,318.8,5.388,0.857,20.61,106.3221,15.46,16.88,53.89,0,110.6,13.28,16.26,280.8
"2009-06-21 00:02:00",993908,6.785,309.4,6.484,1.286,17.86,106.3233,15.46,16.71,53.74,0,110.5,13.28,16.27,271.4
"2009-06-21 00:02:30",993909,5.743,307.6,2.18,0.187,15.79,106.3151,15.44,16.58,53.64,0,110.5,13.32,16.25,269.6
"2009-06-21 00:03:00",993910,6.149,305.5,2.306,0.226,15.83,106.2957,15.39,16.52,53.64,0,110.5,13.32,16.20,267.5
"2009-06-21 00:03:30",993911,7.503,316.5,7.821,1.264,18.41,106.3036,15.41,16.57,53.74,0,110.5,13.28,16.22,278.5
"2009-06-21 00:04:00",993912,7.246,315.7,8.89,1.689,18.34,106.3063,15.42,16.65,53.99,0,110.5,13.28,16.22,277.7
"2009-06-21 00:04:30",993913,6.859,308.6,1.509,0.144,16.06,106.3047,15.41,16.48,54,0,110.5,13.32,16.22,270.6
"2009-06-21 00:05:00",993914,7.607,307.2,1.862,0.305,16.06,106.2966,15.39,16.45,54.15,0,110.5,13.32,16.20,269.2
"2009-06-21 00:05:30",993915,8.49,310.1,6.816,1.148,17.38,106.2838,15.36,16.45,54.34,0,110.5,13.29,16.17,272.1
"2009-06-21 00:06:00",993916,9.71,314.9,7.479,1.338,19.62,106.2893,15.37,16.67,54.59,0,110.5,13.28,16.18,276.9
"2009-06-21 00:06:30",993917,9.57,315.4,6.392,1.239,19.7,106.2899,15.38,16.67,54.59,0,110.5,13.28,16.18,277.4
"2009-06-21 00:07:00",993918,9.39,315.2,6.94,1.221,19.41,106.2902,15.38,16.66,54.65,0,110.5,13.28,16.18,277.2
"2009-06-21 00:07:30",993919,8.52,313,6.802,1.178,18.15,106.2885,15.37,16.61,54.67,0,110.5,13.28,16.18,275.0
"2009-06-21 00:08:00",993920,8.75,312.4,7.256,1.311,17.32,106.2755,15.34,16.38,54.35,0,110.5,13.28,16.14,274.4
"2009-06-21 00:08:30",993921,7.931,307.6,1.715,0.212,15.9,106.2575,15.29,16.35,54.41,0,110.5,13.32,16.10,269.6
"2009-06-21 00:09:00",993922,9.09,312.6,6.421,1.407,18.37,106.2563,15.29,16.47,54.8,0,110.5,13.28,16.09,274.6
"2009-06-21 00:09:30",993923,8.82,312.1,6.698,1.291,18,106.2563,15.29,16.47,55.06,0,110.5,13.28,16.09,274.1
"2009-06-21 00:10:00",993924,10.09,319.1,6.145,1.085,20.21,106.2563,15.29,16.48,55.06,0,110.5,13.28,16.09,281.1
"2009-06-21 00:10:30",993925,9.74,316.6,7.114,1.285,19.61,106.2482,15.27,16.56,55.28,0,110.5,13.28,16.07,278.6
"2009-06-21 00:11:00",993926,9.83,315.6,6.688,1.385,18.92,106.2282,15.22,16.54,55.8,0,110.5,13.28,16.02,277.6
"2009-06-21 00:11:30",993927,9.84,313.6,6.769,1.377,18.37,106.2225,15.2,16.42,55.97,0,110.5,13.29,16.01,275.6
"2009-06-21 00:12:00",993928,9.51,310,5.06,0.952,16.72,106.2225,15.2,16.31,56.13,0,110.5,13.29,16.01,272.0
"2009-06-21 00:12:30",993929,9.78,311.1,6.428,1.25,17.12,106.2225,15.2,16.3,56.34,0,110.5,13.29,16.01,273.1
"2009-06-21 00:13:00",993930,10.42,316.1,6.289,1.377,18.75,106.2011,15.15,16.35,56.61,0,110.4,13.29,15.95,278.1
"2009-06-21 00:13:30",993931,10.88,317,6.63,1.299,19.74,106.1887,15.12,16.48,56.88,0,110.5,13.29,15.92,279.0
"2009-06-21 00:14:00",993932,11,318.6,6.24,1.19,19.98,106.1887,15.12,16.45,57.03,0,110.4,13.29,15.92,280.6
"2009-06-21 00:14:30",993933,10.65,316,6.861,1.298,18.3,106.1814,15.1,16.35,57.13,0,110.4,13.29,15.90,278.0
"2009-06-21 00:15:00",993934,9.57,312.9,5.433,1.213,16.6,106.1636,15.05,16.19,56.86,0,110.4,13.29,15.86,274.9
"2009-06-21 00:15:30",993935,10.77,320.6,6.253,1.11,19.32,106.1564,15.03,16.28,56.99,0,110.4,13.29,15.84,282.6
"2009-06-21 00:16:00",993936,9.97,320.2,7.391,1.308,18.94,106.1579,15.04,16.33,57.05,0,110.4,13.29,15.84,282.2
"2009-06-21 00:16:30",993937,8.99,313.6,5.38,0.937,16.82,106.1339,14.98,16.23,56.99,0,110.4,13.29,15.78,275.6
"2009-06-21 00:17:00",993938,9.4,314.4,6.606,1.098,17.3,106.1267,14.96,16.21,56.96,0,110.4,13.29,15.76,276.4
"2009-06-21 00:17:30",993939,10.54,321.3,5.509,1.186,19.79,106.1316,14.97,16.26,57.17,0,110.4,13.29,15.77,283.3
"2009-06-21 00:18:00",993940,10.53,321.3,6.389,1.155,19.81,106.1229,14.95,16.31,57.49,0,110.4,13.29,15.75,283.3
"2009-06-21 00:18:30",993941,9.53,317.6,6.66,1.22,17.52,106.1099,14.91,16.19,57.48,0,110.4,13.29,15.72,279.6
"2009-06-21 00:19:00",993942,9.54,315.9,5.672,1.049,16.32,106.1073,14.91,16.02,57.52,0,110.4,13.29,15.71,277.9
"2009-06-21 00:19:30",993943,10.43,320.3,6.667,1.375,18.23,106.1097,14.91,16.16,58.06,0,110.4,13.29,15.72,282.3
"2009-06-21 00:20:00",993944,9.79,320.9,8.13,1.236,17.45,106.1036,14.9,16.11,58.06,0,110.4,13.29,15.70,282.9
"2009-06-21 00:20:30",993945,8.89,316.6,1.113,0.651,15.68,106.0826,14.84,15.93,57.83,0,110.4,13.29,15.65,278.6
"2009-06-21 00:21:00",993946,9.74,318.3,6.421,1.167,16.86,106.0854,14.85,15.96,58.15,0,110.4,13.3,15.66,280.3
"2009-06-21 00:21:30",993947,10.51,324.2,6.562,1.266,18.99,106.0872,14.86,16.13,58.5,0,110.4,13.3,15.66,286.2
"2009-06-21 00:22:00",993948,10.21,321.5,6.456,1.413,18.26,106.0806,14.84,16.03,58.59,0,110.4,13.3,15.64,283.5
"2009-06-21 00:22:30",993949,9.81,320.5,6.369,1.221,16.69,106.0603,14.79,15.83,58.64,0,110.4,13.29,15.59,282.5
"2009-06-21 00:23:00",993950,10.31,322.4,6.696,1.365,17.6,106.0555,14.77,15.99,59.1,0,110.4,13.29,15.58,284.4
"2009-06-21 00:23:30",993951,9.89,319,6.106,1.252,17.1,106.0555,14.77,15.95,59.48,0,110.4,13.29,15.58,281.0
"2009-06-21 00:24:00",993952,9.91,320,6.561,1.319,17.4,106.0507,14.76,15.94,59.65,0,110.4,13.29,15.57,282.0
"2009-06-21 00:24:30",993953,9.37,315.7,1.389,0.656,15.46,106.0318,14.71,15.77,59.92,0,110.4,13.29,15.52,277.7
"2009-06-21 00:25:00",993954,9.68,314.3,0.849,0.218,15.65,106.0216,14.69,15.76,60.2,0,110.4,13.33,15.49,276.3
"2009-06-21 00:25:30",993955,10.72,319.7,6.451,1.275,17.85,106.0216,14.69,15.91,60.35,0,110.4,13.3,15.49,281.7
"2009-06-21 00:26:00",993956,11.26,322.6,6.749,1.342,18.87,106.02,14.68,15.98,60.47,0,110.5,13.3,15.49,284.6
"2009-06-21 00:26:30",993957,11.51,323.4,6.612,1.217,18.69,106.0056,14.65,15.81,60.47,0,110.4,13.3,15.45,285.4
"2009-06-21 00:27:00",993958,9.62,315.1,2.754,0.778,15.69,105.9904,14.61,15.79,60.44,0,110.4,13.3,15.41,277.1
"2009-06-21 00:27:30",993959,10.37,320.6,6.418,1.32,17.13,105.9878,14.6,15.72,60.14,0,110.4,13.3,15.40,282.6
"2009-06-21 00:28:00",993960,9.22,314.5,0.338,0.146,14.97,105.9878,14.6,15.64,60.34,0,110.4,13.33,15.40,276.5
"2009-06-21 00:28:30",993961,8.93,316.9,1.962,0.173,15.24,105.9878,14.6,15.63,60.57,0,110.4,13.33,15.40,278.9
"2009-06-21 00:29:00",993962,8.84,318,4.669,0.766,16.51,105.9858,14.6,15.71,60.48,0,110.3,13.31,15.40,280.0
"2009-06-21 00:29:30",993963,9.49,319.9,6.491,1.277,17.49,105.9678,14.55,15.65,60.23,0,110.4,13.31,15.35,281.9
"2009-06-21 00:30:00",993964,10.57,323.6,6.225,1.265,19.47,105.9543,14.52,15.85,60.51,0,110.4,13.31,15.32,285.6
"2009-06-21 00:30:30",993965,10,321,7.408,1.413,19.05,105.954,14.51,15.75,60.43,0,110.4,13.31,15.32,283.0
"2009-06-21 00:31:00",993966,9.93,320.1,6.793,1.416,17.74,105.954,14.51,15.63,60.36,0,110.4,13.31,15.32,282.1
"2009-06-21 00:31:30",993967,9.05,320.1,6.155,1.388,17.34,105.954,14.51,15.64,60.33,0,110.4,13.31,15.32,282.1
"2009-06-21 00:32:00",993968,9.61,324,6.908,1.417,17.66,105.954,14.51,15.63,60.27,0,110.4,13.31,15.32,286.0
"2009-06-21 00:32:30",993969,9.46,324.2,6.905,1.382,17.77,105.9509,14.51,15.72,60.46,0,110.4,13.31,15.31,286.2
"2009-06-21 00:33:00",993970,8.24,319.9,1.447,0.198,15.48,105.943,14.49,15.52,60.42,0,110.4,13.34,15.29,281.9
"2009-06-21 00:33:30",993971,8,318.6,1.691,0.172,15.53,105.9354,14.47,15.52,60.32,0,110.4,13.34,15.27,280.6
"2009-06-21 00:34:00",993972,8.39,318.9,1.548,0.266,15.71,105.9264,14.44,15.54,60.47,0,110.4,13.35,15.25,280.9
"2009-06-21 00:34:30",993973,9.87,330.1,7.067,1.377,19.43,105.9207,14.43,15.76,60.69,0,110.5,13.31,15.23,292.1
"2009-06-21 00:35:00",993974,9.54,325.7,6.871,1.429,19.06,105.9202,14.43,15.77,60.66,0,110.4,13.31,15.23,287.7
"2009-06-21 00:35:30",993975,7.508,320.6,1.859,0.275,15.7,105.9202,14.43,15.48,60.27,0,110.4,13.35,15.23,282.6
"2009-06-21 00:36:00",993976,7.839,322.3,1.572,0.261,15.61,105.9202,14.43,15.5,60.29,0,110.4,13.35,15.23,284.3
"2009-06-21 00:36:30",993977,9.59,327.1,6.898,1.258,17.84,105.9202,14.43,15.57,60.3,0,110.4,13.31,15.23,289.1
"2009-06-21 00:37:00",993978,9.03,327.7,7.441,1.38,18,105.9199,14.43,15.63,60.27,0,110.4,13.31,15.23,289.7
"2009-06-21 00:37:30",993979,7.757,318.9,1.144,0.596,15.39,105.9205,14.43,15.45,60.32,0,110.4,13.31,15.23,280.9
"2009-06-21 00:38:00",993980,7.738,317.3,2.284,0.141,15.38,105.9202,14.43,15.44,60.42,0,110.4,13.35,15.23,279.3
"2009-06-21 00:38:30",993981,8.77,318.4,2.739,0.44,15.46,105.9202,14.43,15.44,60.53,0,110.4,13.35,15.23,280.4
"2009-06-21 00:39:00",993982,8.95,318.6,2.593,0.182,15.77,105.9202,14.43,15.46,60.53,0,110.4,13.35,15.23,280.6
"2009-06-21 00:39:30",993983,7.982,319.8,1.318,0.289,16.06,105.9214,14.43,15.46,60.49,0,110.4,13.35,15.23,281.8
"2009-06-21 00:40:00",993984,7.807,320.1,1.349,0.257,16.22,105.9226,14.43,15.45,60.39,0,110.4,13.35,15.24,282.1
"2009-06-21 00:40:30",993985,8.05,320,2.064,0.587,16.39,105.9211,14.43,15.52,60.47,0,110.4,13.35,15.23,282.0
"2009-06-21 00:41:00",993986,9.5,325,5.812,1.714,18.93,105.9229,14.44,15.61,60.61,0,110.4,13.31,15.24,287.0
"2009-06-21 00:41:30",993987,9.83,327.8,6.289,1.193,20.01,105.922,14.43,15.69,60.69,0,110.4,13.31,15.24,289.8
"2009-06-21 00:42:00",993988,8.45,320,5.041,1.143,16.6,105.9229,14.44,15.46,60.48,0,110.4,13.31,15.24,282.0
"2009-06-21 00:42:30",993989,8.18,321,2.492,0.321,15.55,105.9252,14.44,15.45,60.5,0,110.4,13.34,15.24,283.0
"2009-06-21 00:43:00",993990,7.952,319,3.044,0.249,15.65,105.9237,14.44,15.45,60.59,0,110.4,13.34,15.24,281.0
"2009-06-21 00:43:30",993991,7.98,317,1.508,0.284,15.81,105.924,14.44,15.46,60.63,0,110.4,13.35,15.24,279.0
"2009-06-21 00:44:00",993992,7.227,318.6,2.391,0.209,15.99,105.9231,14.44,15.48,60.64,0,110.4,13.35,15.24,280.6
"2009-06-21 00:44:30",993993,7.531,317.3,1.748,0.306,16.08,105.924,14.44,15.47,60.59,0,110.4,13.35,15.24,279.3
"2009-06-21 00:45:00",993994,7.711,318.1,2.477,0.336,16.28,105.9291,14.45,15.49,60.48,0,110.4,13.35,15.25,280.1
"2009-06-21 00:45:30",993995,7.204,320,2.437,0.223,16.47,105.9448,14.49,15.53,60.32,0,110.4,13.35,15.29,282.0
"2009-06-21 00:46:00",993996,8.15,328.9,8.14,1.293,18.77,105.9499,14.5,15.63,60.41,0,110.4,13.32,15.31,290.9
"2009-06-21 00:46:30",993997,7.916,324.9,5.245,1.219,18.01,105.9541,14.52,15.66,60.48,0,110.4,13.32,15.32,286.9
"2009-06-21 00:47:00",993998,7.559,319.1,1.507,0.321,16.11,105.9625,14.54,15.51,60.29,0,110.4,13.36,15.34,281.1
"2009-06-21 00:47:30",993999,7.306,320,1.223,0.323,16.12,105.9638,14.54,15.5,60.17,0,110.4,13.36,15.34,282.0
"2009-06-21 00:48:00",994000,7.117,320.9,1.115,0.253,16.35,105.965,14.54,15.51,60.14,0,110.4,13.36,15.35,282.9
"2009-06-21 00:48:30",994001,7.304,320.7,1.618,0.282,16.4,105.9641,14.54,15.53,60.06,0,110.4,13.36,15.34,282.7
"2009-06-21 00:49:00",994002,7.286,320.1,1.585,0.182,16.4,105.9665,14.55,15.53,59.98,0,110.4,13.36,15.35,282.1
"2009-06-21 00:49:30",994003,7.34,321.5,1.811,0.146,16.48,105.9644,14.54,15.54,59.91,0,110.4,13.36,15.34,283.5
"2009-06-21 00:50:00",994004,7.097,321.8,1.503,0.165,16.51,105.9656,14.54,15.55,59.88,0,110.4,13.36,15.35,283.8
"2009-06-21 00:50:30",994005,7.169,322.3,1.046,0.229,16.51,105.9647,14.54,15.55,59.79,0,110.4,13.36,15.35,284.3
"2009-06-21 00:51:00",994006,6.756,323.2,1.316,0.103,16.45,105.9653,14.54,15.56,59.7,0,110.4,13.36,15.35,285.2
"2009-06-21 00:51:30",994007,7.029,322.7,0.986,0.11,16.54,105.9715,14.56,15.57,59.65,0,110.4,13.36,15.36,284.7
"2009-06-21 00:52:00",994008,7.107,322,0.889,0.134,16.61,105.9799,14.58,15.58,59.66,0,110.4,13.36,15.38,284.0
"2009-06-21 00:52:30",994009,7.35,322.7,1.185,0.08,16.47,105.9971,14.63,15.58,59.51,0,110.4,13.36,15.43,284.7
"2009-06-21 00:53:00",994010,7.042,325.4,1.295,0.148,16.51,105.9986,14.63,15.6,59.41,0,110.4,13.36,15.43,287.4
"2009-06-21 00:53:30",994011,6.777,321.6,3.205,0.17,16.56,105.9992,14.63,15.6,59.3,0,110.4,13.36,15.43,283.6
"2009-06-21 00:54:00",994012,6.492,323.2,1.006,0.146,16.58,105.9974,14.63,15.62,59.25,0,110.4,13.36,15.43,285.2
"2009-06-21 00:54:30",994013,6.332,323.8,1.053,0.129,16.61,105.9977,14.63,15.63,59.18,0,110.4,13.36,15.43,285.8
"2009-06-21 00:55:00",994014,6.477,324.5,0.488,0.16,16.47,105.9995,14.63,15.64,59.15,0,110.4,13.36,15.43,286.5
"2009-06-21 00:55:30",994015,6.417,324.2,1.419,0.152,16.53,106.0084,14.65,15.66,59.1,0,110.4,13.36,15.46,286.2
"2009-06-21 00:56:00",994016,6.228,323.8,1.74,0.2,16.55,106.0194,14.68,15.66,59.02,0,110.4,13.36,15.49,285.8
"2009-06-21 00:56:30",994017,6.304,323.5,1.012,0.157,16.61,106.0306,14.71,15.67,58.92,0,110.4,13.35,15.51,285.5
"2009-06-21 00:57:00",994018,6.231,323.8,1.135,0.201,16.52,106.033,14.72,15.69,58.83,0,110.4,13.35,15.52,285.8
"2009-06-21 00:57:30",994019,6.308,322.7,3.781,0.195,16.51,106.0315,14.71,15.7,58.74,0,110.4,13.35,15.52,284.7
"2009-06-21 00:58:00",994020,6.708,322.4,1.563,0.209,16.49,106.0318,14.71,15.72,58.66,0,110.4,13.35,15.52,284.4
"2009-06-21 00:58:30",994021,6.67,325.2,1.988,0.148,16.43,106.0383,14.73,15.73,58.57,0,110.4,13.35,15.53,287.2
"2009-06-21 00:59:00",994022,6.519,325.5,0.984,0.107,16.36,106.0557,14.78,15.76,58.6,0,110.4,13.35,15.58,287.5
"2009-06-21 00:59:30",994023,6.457,326.3,1.567,0.234,16.43,106.0627,14.79,15.76,58.53,0,110.4,13.35,15.60,288.3
"2009-06-21 01:00:00",994024,6.437,322.7,0.995,0.2,16.58,106.0633,14.79,15.76,58.39,0,110.4,13.35,15.60,284.7
"2009-06-21 01:00:30",994025,6.462,324.2,1.628,0.121,16.56,106.0627,14.79,15.79,58.19,0,110.4,13.36,15.60,286.2
"2009-06-21 01:01:00",994026,6.339,328.8,3.425,0.184,16.6,106.062,14.79,15.8,57.99,0,110.4,13.36,15.60,290.8
"2009-06-21 01:01:30",994027,6.293,330.3,1.071,0.085,16.4,106.084,14.85,15.83,57.77,0,110.4,13.36,15.65,292.3
"2009-06-21 01:02:00",994028,6.275,331.4,1.065,0.09,16.47,106.0924,14.87,15.84,57.76,0,110.4,13.36,15.67,293.4
"2009-06-21 01:02:30",994029,6.37,330.2,1.589,0.088,16.39,106.0932,14.87,15.86,57.7,0,110.4,13.36,15.68,292.2
"2009-06-21 01:03:00",994030,6.251,325.9,1.256,0.214,16.45,106.0923,14.87,15.87,57.8,0,110.4,13.36,15.67,287.9
"2009-06-21 01:03:30",994031,6.141,324.5,1.549,0.129,16.49,106.0948,14.88,15.89,57.83,0,110.4,13.36,15.68,286.5
"2009-06-21 01:04:00",994032,6.142,324.5,1.654,0.106,16.48,106.1171,14.93,15.92,57.8,0,110.4,13.36,15.74,286.5
"2009-06-21 01:04:30",994033,6.006,327.8,1.776,0.176,16.5,106.124,14.95,15.93,57.71,0,110.4,13.36,15.75,289.8
"2009-06-21 01:05:00",994034,6.364,325.2,2.37,0.095,16.55,106.1243,14.95,15.94,57.47,0,110.4,13.36,15.76,287.2
"2009-06-21 01:05:30",994035,6.136,322.6,0.779,0.101,16.47,106.1243,14.95,15.97,57.35,0,110.4,13.36,15.76,284.6
"2009-06-21 01:06:00",994036,6.019,325.5,1.842,0.239,16.57,106.1381,14.99,15.98,57.28,0,110.4,13.36,15.79,287.5
"2009-06-21 01:06:30",994037,5.583,328.7,2.607,0.11,16.64,106.1488,15.01,16,56.91,0,110.4,13.36,15.82,290.7
"2009-06-21 01:07:00",994038,5.677,330.4,1.828,0.177,16.54,106.157,15.03,16,56.68,0,110.4,13.36,15.84,292.4
"2009-06-21 01:07:30",994039,5.902,327.1,1.168,0.169,16.48,106.1573,15.04,16.02,56.76,0,110.4,13.36,15.84,289.1
"2009-06-21 01:08:00",994040,5.87,327.8,2.042,0.225,16.55,106.1579,15.04,16.05,56.72,0,110.4,13.36,15.84,289.8
"2009-06-21 01:08:30",994041,5.505,325.2,2.493,0.123,16.52,106.1603,15.04,16.06,56.56,0,110.4,13.36,15.85,287.2
"2009-06-21 01:09:00",994042,5.564,323.6,1.034,0.104,16.54,106.1849,15.11,16.07,56.6,0,110.4,13.36,15.91,285.6
"2009-06-21 01:09:30",994043,5.342,327,1.967,0.122,16.48,106.1905,15.12,16.08,56.67,0,110.4,13.36,15.93,289.0
"2009-06-21 01:10:00",994044,5.132,333.2,2.204,0.108,16.52,106.1908,15.12,16.11,56.51,0,110.4,13.36,15.93,295.2
"2009-06-21 01:10:30",994045,5.208,331.1,1.461,0.182,16.44,106.1908,15.12,16.12,56.24,0,110.4,13.36,15.93,293.1
"2009-06-21 01:11:00",994046,5.145,331.9,3.652,0.129,16.52,106.2009,15.15,16.13,56.08,0,110.4,13.36,15.95,293.9
"2009-06-21 01:11:30",994047,4.877,328.2,1.687,0.123,16.47,106.2136,15.18,16.16,56.18,0,110.4,13.36,15.99,290.2
"2009-06-21 01:12:00",994048,4.792,327.9,0.73,0.087,16.49,106.2224,15.2,16.18,56.27,0,110.4,13.36,16.01,289.9
"2009-06-21 01:12:30",994049,4.651,328.2,1.687,0.089,16.42,106.2246,15.21,16.19,56.25,0,110.4,13.35,16.01,290.2
"2009-06-21 01:13:00",994050,4.434,327.7,0.894,0.096,16.32,106.2246,15.21,16.2,56.25,0,110.4,13.36,16.01,289.7
"2009-06-21 01:13:30",994051,4.503,330.8,1.444,0.084,16.45,106.2246,15.21,16.21,56.23,0,110.4,13.35,16.01,292.8
"2009-06-21 01:14:00",994052,4.662,331,1.323,0.118,16.57,106.226,15.21,16.24,56.15,0,110.4,13.35,16.02,293.0
"2009-06-21 01:14:30",994053,4.756,331.1,1.094,0.217,16.48,106.2427,15.25,16.24,56.08,0,110.4,13.35,16.06,293.1
"2009-06-21 01:15:00",994054,4.985,331.9,1.024,0.091,16.57,106.2548,15.29,16.25,55.8,0,110.5,13.35,16.09,293.9
"2009-06-21 01:15:30",994055,5.2,331.7,0.797,0.177,16.47,106.2585,15.29,16.28,55.75,0,110.4,13.35,16.10,293.7
"2009-06-21 01:16:00",994056,5.34,329.1,2.018,0.133,16.53,106.2585,15.29,16.29,55.71,0,110.5,13.35,16.10,291.1
"2009-06-21 01:16:30",994057,5.442,330.5,1.148,0.082,16.66,106.2585,15.29,16.31,55.42,0,110.5,13.35,16.10,292.5
"2009-06-21 01:17:00",994058,5.181,331.4,0.892,0.16,16.46,106.2585,15.29,16.31,55.29,0,110.5,13.35,16.10,293.4
"2009-06-21 01:17:30",994059,5.169,332.4,0.508,0.094,16.51,106.259,15.3,16.33,55.44,0,110.5,13.36,16.10,294.4
"2009-06-21 01:18:00",994060,5.274,331.4,0.322,0.069,16.52,106.2669,15.32,16.32,55.34,0,110.5,13.36,16.12,293.4
"2009-06-21 01:18:30",994061,5.174,332.3,0.629,0.034,16.55,106.2751,15.34,16.35,55.23,0,110.5,13.36,16.14,294.3
"2009-06-21 01:19:00",994062,5.139,332.5,0.531,0.051,16.55,106.2914,15.38,16.35,55.13,0,110.5,13.36,16.19,294.5
"2009-06-21 01:19:30",994063,5.085,331.6,0.462,0.044,16.55,106.2923,15.38,16.36,55.06,0,110.5,13.36,16.19,293.6
"2009-06-21 01:20:00",994064,4.951,331.1,0.455,0.078,16.54,106.2923,15.38,16.37,54.93,0,110.5,13.36,16.19,293.1
"2009-06-21 01:20:30",994065,4.882,331.1,0.586,0.059,16.55,106.2923,15.38,16.37,54.94,0,110.5,13.36,16.19,293.1
"2009-06-21 01:21:00",994066,4.722,331.7,0.691,0.077,16.58,106.2923,15.38,16.4,54.95,0,110.5,13.36,16.19,293.7
"2009-06-21 01:21:30",994067,4.805,331.8,0.662,0.041,16.61,106.2926,15.38,16.39,54.98,0,110.5,13.36,16.19,293.8
"2009-06-21 01:22:00",994068,4.861,333.4,0.528,0.039,16.58,106.3007,15.4,16.41,54.92,0,110.5,13.36,16.21,295.4
"2009-06-21 01:22:30",994069,4.925,333.8,0.491,0.07,16.61,106.3179,15.45,16.42,54.85,0,110.5,13.36,16.25,295.8
"2009-06-21 01:23:00",994070,4.928,333.1,0.533,0.037,16.63,106.3213,15.46,16.43,54.72,0,110.5,13.36,16.26,295.1
"2009-06-21 01:23:30",994071,4.884,333.3,0.61,0.036,16.59,106.3261,15.47,16.45,54.67,0,110.5,13.36,16.27,295.3
"2009-06-21 01:24:00",994072,4.812,333.5,0.513,0.037,16.55,106.3261,15.47,16.44,54.66,0,110.5,13.36,16.27,295.5
"2009-06-21 01:24:30",994073,4.686,332.7,0.592,0.069,16.53,106.3261,15.47,16.46,54.7,0,110.5,13.36,16.27,294.7
"2009-06-21 01:25:00",994074,4.682,332.1,0.548,0.091,16.59,106.3261,15.47,16.47,54.74,0,110.5,13.36,16.27,294.1
"2009-06-21 01:25:30",994075,4.839,332.4,0.635,0.059,16.75,106.3261,15.47,16.48,54.62,0,110.5,13.36,16.27,294.4
"2009-06-21 01:26:00",994076,4.906,332.8,0.653,0.061,16.8,106.3261,15.47,16.49,54.44,0,110.5,13.36,16.27,294.8
"2009-06-21 01:26:30",994077,4.847,334.1,0.529,0.042,16.78,106.3315,15.48,16.5,54.34,0,110.5,13.36,16.29,296.1
"2009-06-21 01:27:00",994078,4.743,335,0.885,0.045,16.71,106.3464,15.52,16.5,54.28,0,110.5,13.36,16.33,297.0
"2009-06-21 01:27:30",994079,4.641,335.9,0.474,0.062,16.57,106.3537,15.54,16.51,54.2,0,110.5,13.36,16.35,297.9
"2009-06-21 01:28:00",994080,4.468,335.7,0.535,0.048,16.45,106.3585,15.55,16.52,54.17,0,110.5,13.36,16.36,297.7
"2009-06-21 01:28:30",994081,4.289,336.5,0.476,0.077,16.59,106.3599,15.55,16.54,54.14,0,110.5,13.35,16.36,298.5
"2009-06-21 01:29:00",994082,4.126,337.7,0.85,0.047,16.56,106.3599,15.55,16.54,54.16,0,110.5,13.35,16.36,299.7
"2009-06-21 01:29:30",994083,3.981,338.8,0.635,0.063,16.43,106.3599,15.55,16.56,54.21,0,110.5,13.35,16.36,300.8
"2009-06-21 01:30:00",994084,3.919,339.7,1.036,0.061,16.37,106.3599,15.55,16.54,54.29,0,110.5,13.35,16.36,301.7
"2009-06-21 01:30:30",994085,3.976,337.8,0.582,0.074,16.47,106.3599,15.55,16.56,54.27,0,110.5,13.35,16.36,299.8
"2009-06-21 01:31:00",994086,3.925,338.6,0.66,0.052,16.43,106.3596,15.55,16.55,54.22,0,110.5,13.35,16.36,300.6
"2009-06-21 01:31:30",994087,3.859,338.9,0.522,0.062,16.37,106.3613,15.56,16.57,54.15,0,110.5,13.35,16.36,300.9
"2009-06-21 01:32:00",994088,3.847,340.5,1.566,0.106,16.49,106.3701,15.58,16.58,54.04,0,110.5,13.35,16.39,302.5
"2009-06-21 01:32:30",994089,3.758,341.6,0.986,0.09,16.47,106.3805,15.61,16.59,53.97,0,110.5,13.35,16.41,303.6
"2009-06-21 01:33:00",994090,4.036,341.8,0.521,0.052,16.67,106.3895,15.63,16.59,53.92,0,110.5,13.35,16.44,303.8
"2009-06-21 01:33:30",994091,4.181,341.9,0.615,0.037,16.78,106.3932,15.64,16.61,53.76,0,110.5,13.35,16.45,303.9
"2009-06-21 01:34:00",994092,4.081,342,0.763,0.056,16.76,106.3935,15.64,16.61,53.75,0,110.5,13.35,16.45,304.0
"2009-06-21 01:34:30",994093,4.149,340.5,1.303,0.058,16.86,106.3938,15.64,16.61,53.72,0,110.5,13.35,16.45,302.5
"2009-06-21 01:35:00",994094,4.063,341,0.646,0.029,16.8,106.3926,15.64,16.61,53.54,0,110.5,13.36,16.45,303.0
"2009-06-21 01:35:30",994095,3.987,341.6,0.877,0.057,16.6,106.3926,15.64,16.64,53.52,0,110.5,13.36,16.45,303.6
"2009-06-21 01:36:00",994096,3.904,343.6,0.791,0.056,16.5,106.392,15.64,16.63,53.55,0,110.5,13.36,16.44,305.6
"2009-06-21 01:36:30",994097,3.888,344,0.66,0.049,16.51,106.3908,15.63,16.64,53.56,0,110.5,13.36,16.44,306.0
"2009-06-21 01:37:00",994098,3.899,344.1,1.02,0.043,16.51,106.3887,15.63,16.66,53.54,0,110.5,13.36,16.44,306.1
"2009-06-21 01:37:30",994099,3.949,345.6,0.843,0.049,16.56,106.3916,15.64,16.65,53.54,0,110.5,13.36,16.44,307.6
"2009-06-21 01:38:00",994100,4.012,345.7,0.487,0.056,16.63,106.397,15.65,16.67,53.53,0,110.5,13.36,16.46,307.7
"2009-06-21 01:38:30",994101,3.952,344.7,0.75,0.047,16.55,106.4067,15.67,16.68,53.47,0,110.5,13.36,16.48,306.7
"2009-06-21 01:39:00",994102,4.068,344.9,0.705,0.065,16.71,106.4163,15.7,16.66,53.36,0,110.5,13.36,16.51,306.9
"2009-06-21 01:39:30",994103,3.983,343.7,0.873,0.064,16.62,106.419,15.71,16.68,53.25,0,110.5,13.36,16.51,305.7
"2009-06-21 01:40:00",994104,4.055,342.6,0.727,0.05,16.76,106.4204,15.71,16.68,53.11,0,110.5,13.36,16.52,304.6
"2009-06-21 01:40:30",994105,4.117,342.1,0.722,0.074,16.8,106.4189,15.71,16.69,53.01,0,110.5,13.36,16.51,304.1
"2009-06-21 01:41:00",994106,4.061,342,0.682,0.044,16.73,106.4204,15.71,16.7,52.99,0,110.5,13.36,16.52,304.0
"2009-06-21 01:41:30",994107,4.026,342.6,0.552,0.037,16.66,106.4189,15.71,16.7,53.05,0,110.5,13.36,16.51,304.6
"2009-06-21 01:42:00",994108,4.043,343.4,0.582,0.038,16.65,106.4183,15.7,16.7,53.06,0,110.5,13.36,16.51,305.4
"2009-06-21 01:42:30",994109,3.985,344,0.578,0.043,16.58,106.4186,15.71,16.7,53.04,0,110.5,13.36,16.51,306.0
"2009-06-21 01:43:00",994110,4.088,343.4,0.652,0.046,16.74,106.4171,15.7,16.73,53,0,110.5,13.36,16.51,305.4
"2009-06-21 01:43:30",994111,4.078,342.5,0.609,0.033,16.78,106.415,15.7,16.72,52.9,0,110.5,13.36,16.50,304.5
"2009-06-21 01:44:00",994112,4.015,342.8,0.466,0.038,16.64,106.4165,15.7,16.74,52.84,0,110.5,13.36,16.51,304.8
"2009-06-21 01:44:30",994113,3.945,343.7,0.531,0.038,16.53,106.4132,15.69,16.73,52.79,0,110.5,13.36,16.50,305.7
"2009-06-21 01:45:00",994114,3.858,344.1,0.635,0.034,16.5,106.4181,15.7,16.74,52.75,0,110.5,13.35,16.51,306.1
"2009-06-21 01:45:30",994115,3.843,345.8,0.846,0.047,16.6,106.4236,15.72,16.74,52.65,0,110.5,13.35,16.52,307.8
"2009-06-21 01:46:00",994116,3.83,346.1,0.673,0.056,16.56,106.4367,15.75,16.75,52.62,0,110.5,13.35,16.56,308.1
"2009-06-21 01:46:30",994117,3.746,346.5,0.613,0.043,16.63,106.4394,15.76,16.74,52.64,0,110.5,13.35,16.57,308.5
"2009-06-21 01:47:00",994118,3.664,346.8,0.479,0.043,16.75,106.4434,15.77,16.76,52.64,0,110.5,13.35,16.58,308.8
"2009-06-21 01:47:30",994119,3.5,347.4,1.422,0.089,16.82,106.4441,15.77,16.76,52.66,0,110.5,13.35,16.58,309.4